Showing default

LT-1 01A, 51284

Orbit data source: Space-Track

LT-1 01A, 51284 is a payload satellite owned by SAST (CN) in SSO that was launched on Tue, 25 Jan 2022 UTC via a CHANG ZHENG 4C launch vehicle from the Jiuquan Satellite Launch Center, China (JSC). Payload-class satellites include a variety of spacecraft equipped with specific instruments for various scientific and technological missions. These include communications satellites like Starlink; space stations such as the ISS; scientific satellites like the Hubble; Earth observation satellites from companies like Planet Labs, Umbra, and HawkEye 360; GPS; miniature CubeSats for education and research; and military/defense satellites.

Loading next visibility...
Identifier
51284, 2022-007A
Orbit
SSO
Country
Flag of CNCN / PRC
Related business
Manufacturer
SAST
Mission
Operational Civil Radar Imaging
Bus & Motor
LSAR, AOCS 20N
Mass
3,200 kg wet, ~2,500 kg dry
Launch date (UTC)
2022-01-25 (4 years ago)
Launch vehicle
CHANG ZHENG 4C
Launch site
Jiuquan Satellite Launch Center, China (JSC)
Object type
Payload
Rocket body
Debris
Shape & HBR
Box + 4 Pan, 5.0 m
Radar Cross Section
14.608 m², Large (>1 m²)

Expand to show TLE details & history
Last TLE update: 21 hours ago

TLE from 21 hours ago
0 LT-1 01A
1 51284U 22007A   26172.55088731  .00000421  00000-0  51289-4 0  9992
2 51284  97.8104 179.9088 0001613  90.5604 269.5798 14.88411281239129
Epoch: 2026-06-21T13:13Z
TLE epoch observation values (Epoch: 2026-06-21T13:13:16.663Z)
Latitude
0.00001°
Longitude
71.83983°
Altitude
605.943 km
Speed
7.556 km/s
True Right ascension
11h 59m 38s
True Declination
0° 00' 00"
Sunlit
Object was in daylight at epoch
Visualization orbit readout
Latitude
Unknown
Longitude
Unknown
Altitude
Unknown
Speed
Unknown
Apparent Right ascension
Unknown
Apparent Declination
Unknown
Sunlit
N/A
Visualization observer readout
Local Sidereal Time
21:40:27
Azimuth
Unknown
Elevation
Unknown
Doppler factor
Unknown
Orbital elements
Apogee altitude
601.05 km
Perigee altitude
598.799 km
Semi-major axis
6,978.062 km
Eccentricity
0.00016
Inclination
97.8104°
RAAN
179.9088°
Arg. of periapsis
90.5604°
True anomaly
269.56132°
Mean anomaly
269.5798°
Eccentric anomaly
269.57056°
Mean motion
3.72341 °/min
Orbital period
96.69 mins
BSTAR
0.000051289
Loading maneuver chart data...
Computing Atmospheric mass density...
Loading historical data...
Loading historical data...
Loading historical data...
Loading historical data...
Loading historical data...
Loading historical data...
Loading historical data...
Other satellites on launch #7 in the year 2022 (2022-01-25 UTC)

Documentation

Showing up to 5 results
|